Regional Weather Roundup
Issued by NWS

Home | Current Version | Previous Version | Text Only | Print | Product List | Glossary On
Versions: 1 2 3 4 5 6 7 8 9 10 11 12 13 14 15 16 17 18 19 20 21 22 23 24 25 26 27 28 29 30 31 32 33 34 35 36 37 38 39 40 41 42 43 44 45 46 47 48 49 50
000
ASUS44 KFWD 070401
RWRTX
NORTH TEXAS HOURLY WEATHER ROUNDUP
NATIONAL WEATHER SERVICE FORT WORTH TX
1100 PM CDT MON JUL 06 2015

NOTE: "FAIR" INDICATES FEW OR NO CLOUDS BELOW 12,000 FEET WITH NO
SIGNIFICANT WEATHER AND/OR OBSTRUCTIONS TO VISIBILITY.

TXZ118-119-070500-
DALLAS/FORT WORTH METROPLEX

CITY           SKY/WX    TMP DP  RH WIND       PRES   REMARKS
DFW AIRPORT    MOCLDY    85  69  58 S16       29.95R
DALLAS LOVE    PTCLDY    85  69  58 S16       29.96R
FTW MEACHAM    PTCLDY    85  71  63 S15       29.95R HX  90
DAL-EXECUTIVE  CLEAR     83  69  62 S9        29.97R
FTW-ALLIANCE   MOCLDY    84  70  62 S14G21    29.95R
FTW-NAS-JRB    PTCLDY    85  71  63 S14       29.96R HX  90
ARLINGTON      CLEAR     85  69  58 S14       29.96R
GRAND PRAIRIE  PTCLDY    83  71  66 S10       29.98R
MESQUITE       CLEAR     82  70  67 S9        29.98R
LANCASTER      CLEAR     82  69  65 S7        29.99R
$$

TXZ091>094-102>105-117-120-121-131>134-070500-
NORTH CENTRAL TEXAS

CITY           SKY/WX    TMP DP  RH WIND       PRES   REMARKS
BRIDGEPORT     MOCLDY    83  69  63 SE7       29.96R
DENTON         PTCLDY    83  70  64 S13       29.95R
MCKINNEY       MOCLDY    82  69  64 S7        29.98R
TERRELL        CLEAR     82  70  66 S13       29.99R
WAXAHACHIE     CLEAR     80  71  74 S8        29.99S
$$

TXZ083>090-098>101-113>116-127>130-139>142-154-155-070500-
WESTERN NORTH TEXAS

CITY           SKY/WX    TMP DP  RH WIND       PRES   REMARKS
WICHITA FALLS  CLOUDY    84  67  56 S16       29.89S
WF-KICKAPOO    CLOUDY    85  67  54 SE12      29.91F
VERNON         CLOUDY    87  59  39 NW15G26   29.94R
ABILENE        CLOUDY    84  65  52 S15       29.95R
ABILENE-DYESS  CLOUDY    84  66  54 S12       29.93R
GRAHAM         CLOUDY    83  68  59 SE7       29.93R
MINERAL WELLS  MOCLDY    83  67  58 SE12      29.94R
STEPHENVILLE   MOCLDY    80  65  60 S7        30.00R
COMANCHE       CLOUDY    80  68  67 S8        29.98R
$$

TXZ143>147-156>162-174-175-070500-
CENTRAL TEXAS

CITY           SKY/WX    TMP DP  RH WIND       PRES   REMARKS
WACO           CLEAR     82  71  69 S14       29.99R
WACO-MCGREGOR  CLEAR     81  70  69 S10       30.01R
CORSICANA      PTCLDY    82  72  71 S12       30.00S
MEXIA          CLEAR     78  72  82 SE18      30.00R
HEARNE         CLEAR     79  73  80 SE3       30.03R HAZE
TEMPLE         CLEAR     81  70  69 SE12      29.99R
KILLEEN        CLEAR     79  71  74 S10       29.99R
KILLEEN-SKYLRK CLEAR     81  68  65 S14       29.99R
FORT HOOD      CLEAR     80  70  73 S9        29.99R
HAMILTON       PTCLDY    80  68  67 MISG      30.00R
LAMPASAS       PTCLDY    81  72  75 S6        30.00R
$$

TXZ095>097-106>112-122>126-135>138-148>153-164>167-070500-
EAST TEXAS

CITY           SKY/WX    TMP DP  RH WIND       PRES   REMARKS
PARIS          MOCLDY    79  72  78 S9        29.99R
SULPHUR SPRNGS PTCLDY    82  73  72 S6        30.02R
GILMER         MOCLDY    79  69  71 SE7       30.02R
MINEOLA        CLEAR     82  73  74 SE5       30.01R
TYLER          MOCLDY    81  72  74 S9        30.01S
LONGVIEW       PTCLDY    79  70  74 S7        30.02R
ATHENS         CLEAR     81  70  69 S5        29.99S
PALESTINE      CLEAR     81  73  76 SE3       30.03S
JACKSONVILLE   CLEAR     80  71  75 S8        30.05F
HENDERSON      PTCLDY    77  69  74 S3        30.04R
NACOGDOCHES    CLEAR    N/A N/A N/A S6        30.04R
LUFKIN         CLEAR     80  73  79 SE3       30.04R
$$

SUPPLEMENTAL OBSERVATIONS (CENTRAL)

CITY           SKY/WX    TMP DP  RH WIND       PRES   REMARKS
$$

SUPPLEMENTAL OBSERVATIONS (WEST)

CITY           SKY/WX    TMP DP  RH WIND       PRES   REMARKS
$$

SUPPLEMENTAL OBSERVATIONS (EAST)

CITY           SKY/WX    TMP DP  RH WIND       PRES   REMARKS
$$

SUPPLEMENTAL OBSERVATIONS ARE A COLLECTION OF AUTOMATED INSTRUMENTS
THAT ARE MAINTAINED BY A VARIETY OF FEDERAL AND STATE AGENCIES.
CERTAIN ELEMENTS...SUCH AS HUMIDITY VALUES AND SUSTAINED WIND
SPEEDS...MAY BE APPROXIMATED.




USA.gov is the U.S. government's official web portal to all federal, state and local government web resources and services.